Tiempo atmosférico en la estación meteorológica de Sigüenza, Guadalajara (1044 m.)



Fecha
DESCASC
Temp. máxima en grados centígrados (hora)
DESCASC
Temp. mínima en grados centígrados (hora)
DESCASC
Temp. media en grados centígrados
DESCASC
Racha de viento máxima en m/sg (hora)
DESCASC
Velocidad máxima media en intervalos de 10 minutos(hora)
DESCASC
Precipitaciones diarias en mm
DESCASC
Precipitaciones de 00:00 a 06:00 en mm
DESCASC
Precipitaciones de 06:00 a 12:00 en mm
DESCASC
Precipitaciones de 12:00 a 18:00 en mm
DESCASC
Precipitaciones de 18:00 a 24:00 en mm
DESCASC
15-08-2019 31.1 (15:00) 11.5 (07:30) 21.3 7.5 (21:10) 3.33 (21:10) 0 0 0 0 0
14-08-2019 30.2 (16:40) 6.4 (00:00) 18.3 12.5 (16:50) 3.61 (16:10) 0 0 0 0 0
13-08-2019 26.2 (16:40) 7.7 (00:00) 17 7.5 (16:00) 3.06 (18:50) 0 0 0 0 0
12-08-2019 23 (16:10) 9.3 (00:00) 16.2 10.83 (22:20) 4.44 (10:10) 0 0 0 0 0
11-08-2019 27.5 (16:50) 14.4 (00:00) 20.9 12.22 (17:40) 5.83 (15:40) 0 0 0 0 0
10-08-2019 29.8 (16:20) 14.4 (00:00) 22.1 10.28 (17:00) 5 (17:00) 0 0 0 0 0
09-08-2019 29.9 (16:20) 12.4 (00:00) 21.1 13.33 (18:20) 7.22 (18:20) 0 0 0 0 0
08-08-2019 30.3 (15:50) 11.3 (00:00) 20.8 13.06 (18:00) 5.83 (15:50) 0 0 0 0 0
07-08-2019 26.1 (14:20) 15.3 (00:00) 20.7 8.06 (18:10) 3.89 (18:30) 0 0 0 0 0
06-08-2019 32.8 (15:40) 11 (00:00) 21.9 9.72 (17:50) 5 (13:20) 0 0 0 0 0
05-08-2019 32.6 (16:20) 10.3 (00:00) 21.4 -- (--) -- (--) -- 0 -- 0 0
04-08-2019 32.5 (15:20) 10.1 (00:00) 21.3 11.39 (16:10) 5.83 (14:20) 0 0 0 0 0
03-08-2019 33.1 (16:10) 13.2 (00:00) 23.1 10.28 (16:00) 5 (16:00) 0 0 0 0 0
02-08-2019 32.9 (16:50) 14.1 (00:00) 23.5 7.78 (16:50) 3.61 (16:50) 0 0 0 0 0
01-08-2019 30.9 (16:00) 14.4 (00:00) 22.6 11.39 (17:40) 6.67 (16:10) 0 0 0 0 0
31-07-2019 30.5 (17:40) 12.6 (00:00) 21.6 10.83 (15:10) 5 (15:30) 0 0 0 0 0
30-07-2019 26.7 (17:50) 11.3 (00:00) 19 8.06 (11:00) 3.33 (21:00) 0 0 0 0 0
29-07-2019 30.1 (16:20) 9 (00:00) 19.6 10.28 (14:20) 5.56 (14:10) 0 0 0 0 0
28-07-2019 26.5 (17:50) 7.1 (00:00) 16.8 8.06 (16:20) 2.78 (14:00) 0 0 0 0 0
27-07-2019 24.9 (13:40) 13.1 (00:00) 19 10.83 (17:30) 4.17 (16:40) 0 0 0 0 0
26-07-2019 29.6 (15:10) 17.3 (00:00) 23.4 10.56 (15:00) 5.28 (14:10) 0 0 0 0 0
25-07-2019 33.6 (17:00) 14.7 (00:00) 24.1 12.22 (17:50) 6.67 (17:50) -- 0 -- 0 0
24-07-2019 34.7 (15:50) 15.9 (00:00) 25.3 11.11 (18:00) 5.28 (17:20) 0 0 0 0 0
23-07-2019 35.5 (15:50) 12.3 (00:00) 23.9 14.44 (21:40) 6.11 (17:50) 0 0 0 0 0
22-07-2019 -- (--) -- (--) -- -- (--) -- (--) -- -- -- 0 0
21-07-2019 35.2 (17:30) 15.6 (00:00) 25.4 10 (19:20) 4.17 (19:00) 0 0 0 0 0
20-07-2019 34 (16:10) 12.8 (00:00) 23.4 8.61 (13:10) 4.72 (10:00) 0 0 0 0 0
19-07-2019 32.8 (15:10) 13.5 (00:00) 23.1 9.44 (16:50) 4.72 (16:50) 0 0 0 0 0

Gráficas

Temp. máximas Temp. mínimas Temp. medias Precipitaciones Rachas de viento máximas Velocidades máximas media en intervalos de 10 minutos

Datos horarios

Fecha y hora oficial Temperatura (ºC) Velocidad del viento (km/h) Dirección del viento Racha (km/h) Dirección de racha Precipitación (mm) Presión (hPa) Tendencia (hPa) Humedad (%)
2019-08-17 23:00:00 20.3 4 Nordeste 9 Norte 0 -- -- 32
2019-08-17 22:00:00 24.5 0 Calma 10 Sur 0 -- -- 25
2019-08-17 21:00:00 29.2 5 Sur 25 Sur 0 -- -- 17
2019-08-17 20:00:00 31.3 10 Sudoeste 30 Sudoeste 0 -- -- 14
2019-08-17 19:00:00 32.4 18 Sur 35 Sur 0 -- -- 13
2019-08-17 18:00:00 32.7 13 Sudoeste 36 Sur 0 -- -- 12
2019-08-17 17:00:00 33.1 15 Sudoeste 37 Sudoeste 0 -- -- 13
2019-08-17 16:00:00 33.3 15 Sudoeste 53 Sur 0 -- -- 12
2019-08-17 15:00:00 33.4 21 Sur 44 Sudoeste 0 -- -- 14
2019-08-17 14:00:00 32.2 14 Sudoeste 34 Sudoeste 0 -- -- 18
2019-08-17 13:00:00 31.7 12 Sudoeste 27 Sudoeste 0 -- -- 19
2019-08-17 12:00:00 29.6 4 Oeste 15 Sur 0 -- -- 22
2019-08-17 11:00:00 26 3 Norte 6 Nordeste 0 -- -- 29
2019-08-17 10:00:00 20.5 3 Nordeste 5 Nordeste 0 -- -- 51
2019-08-17 09:00:00 14.8 0 Calma 8 Nordeste 0 -- -- 70
2019-08-17 08:00:00 12.4 5 Nordeste 9 Nordeste 0 -- -- 74
2019-08-17 07:00:00 12.7 2 Norte 10 Norte 0 -- -- 74
2019-08-17 06:00:00 13.1 5 Nordeste 7 Norte 0 -- -- 70
2019-08-17 05:00:00 13.9 5 Norte 7 Nordeste 0 -- -- 68
2019-08-17 04:00:00 14.8 3 Sudoeste 9 Norte 0 -- -- 64
2019-08-17 03:00:00 15.4 4 Nordeste 8 Norte 0 -- -- 62
2019-08-17 02:00:00 16.6 4 Nordeste 9 Nordeste 0 -- -- 57
2019-08-17 01:00:00 18.6 5 Norte 8 Norte 0 -- -- 50
2019-08-17 00:00:00 19.4 4 Nordeste 10 Norte 0 -- -- 49
2019-08-16 23:00:00 21.7 0 Calma 8 Norte 0 -- -- 44
2019-08-16 22:00:00 24 0 Calma 4 Este 0 -- -- 38
2019-08-16 21:00:00 27.3 0 Calma 9 Sudoeste 0 -- -- 32
2019-08-16 20:00:00 30 4 Sur 23 Sudoeste 0 -- -- 24
2019-08-16 19:00:00 31.6 6 Sudoeste 18 Sur 0 -- -- 23
2019-08-16 18:00:00 32 8 Sur 23 Oeste 0 -- -- 22
2019-08-16 17:00:00 32.5 11 Sur 26 Sur 0 -- -- 21
2019-08-16 16:00:00 32 10 Sudoeste 32 Sudoeste 0 -- -- 21
2019-08-16 15:00:00 31.8 14 Sudoeste 29 Sudoeste 0 -- -- 21
2019-08-16 14:00:00 31.2 8 Sudoeste 25 Sudoeste 0 -- -- 24
2019-08-16 13:00:00 29.7 6 Sudoeste 19 Oeste 0 -- -- 29
2019-08-16 12:00:00 27.8 9 Sudoeste 20 Sudoeste 0 -- -- 37
2019-08-16 11:00:00 25.2 10 Sudoeste 19 Sur 0 -- -- 45
2019-08-16 10:00:00 20.1 2 Sudoeste 8 Oeste 0 -- -- 61
2019-08-16 09:00:00 16.5 4 Nordeste 8 Nordeste 0 -- -- 67
2019-08-16 08:00:00 13.6 4 Nordeste 10 Norte 0 -- -- 76
2019-08-16 07:00:00 13.3 6 Nordeste 11 Nordeste 0 -- -- 76
2019-08-16 06:00:00 14.2 5 Nordeste 10 Norte 0 -- -- 73
2019-08-16 05:00:00 14.9 6 Norte 14 Norte 0 -- -- 71
2019-08-16 04:00:00 15.4 3 Nordeste 13 Nordeste 0 -- -- 68
2019-08-16 03:00:00 15.3 7 Norte 10 Norte 0 -- -- 68
2019-08-16 02:00:00 16.7 4 Nordeste 10 Nordeste 0 -- -- 62
2019-08-16 01:00:00 18.3 5 Este 14 Nordeste 0 -- -- 57
2019-08-16 00:00:00 19.2 8 Nordeste 25 Nordeste 0 -- -- 55
2019-08-15 23:00:00 20.6 11 Nordeste 26 Nordeste 0 -- -- 50
2019-08-15 22:00:00 22.3 8 Nordeste 27 Nordeste 0 -- -- 44
2019-08-15 21:00:00 25.7 10 Nordeste 24 Norte 0 -- -- 38
2019-08-15 20:00:00 28.6 8 Noroeste 23 Norte 0 -- -- 23
2019-08-15 19:00:00 29.8 8 Norte 23 Norte 0 -- -- 21
2019-08-15 18:00:00 30.8 5 Sudoeste 22 Nordeste 0 -- -- 21
2019-08-15 17:00:00 29.9 4 Norte 23 Noroeste 0 -- -- 23
2019-08-15 16:00:00 29.7 9 Norte 21 Noroeste 0 -- -- 26
2019-08-15 15:00:00 30.3 5 Oeste 20 Sudoeste 0 -- -- 29
2019-08-15 14:00:00 29.6 4 Oeste 22 Norte 0 -- -- 30
2019-08-15 13:00:00 28.2 8 Nordeste 19 Noroeste 0 -- -- 32
2019-08-15 12:00:00 26.6 4 Este 16 Este 0 -- -- 35
2019-08-15 11:00:00 23.6 7 Nordeste 17 Nordeste 0 -- -- 41
2019-08-15 10:00:00 20.3 8 Norte 16 Norte 0 -- -- 54
2019-08-15 09:00:00 17.1 6 Nordeste 13 Nordeste 0 -- -- 65
2019-08-15 08:00:00 13.1 6 Norte 10 Norte 0 -- -- 70
2019-08-15 07:00:00 11.8 5 Norte 10 Norte 0 -- -- 70
2019-08-15 06:00:00 12.1 7 Norte 12 Norte 0 -- -- 69
2019-08-15 05:00:00 12.8 6 Norte 11 Norte 0 -- -- 65
2019-08-15 04:00:00 13.9 7 Norte 13 Norte 0 -- -- 61
2019-08-15 03:00:00 14.7 9 Norte 13 Norte 0 -- -- 56
2019-08-15 02:00:00 15.7 5 Norte 10 Norte 0 -- -- 50
2019-08-15 01:00:00 16.3 5 Nordeste 11 Nordeste 0 -- -- 46
2019-08-15 00:00:00 16.9 6 Nordeste 11 Norte 0 -- -- 40
2019-08-14 23:00:00 18 3 Nordeste 10 Norte 0 -- -- 36
2019-08-14 22:00:00 21.4 3 Nordeste 6 Este 0 -- -- 29
2019-08-14 21:00:00 25.1 0 Calma 17 Norte 0 -- -- 24
2019-08-14 20:00:00 27.6 8 Norte 24 Norte 0 -- -- 19
2019-08-14 19:00:00 28.7 9 Norte 25 Norte 0 -- -- 18
2019-08-14 18:00:00 29 10 Norte 27 Nordeste 0 -- -- 18
2019-08-14 17:00:00 29.2 9 Norte 45 Norte 0 -- -- 18
2019-08-14 16:00:00 29.5 8 Oeste 27 Sudoeste 0 -- -- 17
2019-08-14 15:00:00 29.2 4 Sudeste 21 Norte 0 -- -- 19
2019-08-14 14:00:00 27.5 6 Nordeste 23 Norte 0 -- -- 21
2019-08-14 13:00:00 26.4 6 Sudoeste 23 Norte 0 -- -- 21
2019-08-14 12:00:00 25.4 5 Noroeste 21 Nordeste 0 -- -- 24
2019-08-14 11:00:00 21.8 7 Sur 14 Sur 0 -- -- 30
2019-08-14 10:00:00 14.7 0 Calma 6 Norte 0 -- -- 55
2019-08-14 09:00:00 10.5 3 Norte 6 Nordeste 0 -- -- 70
2019-08-14 08:00:00 6.8 3 Nordeste 6 Norte 0 -- -- 80
2019-08-14 07:00:00 6.7 3 Nordeste 7 Norte 0 -- -- 79
2019-08-14 06:00:00 7.3 5 Norte 9 Norte 0 -- -- 77
2019-08-14 05:00:00 8.3 3 Nordeste 9 Norte 0 -- -- 74
2019-08-14 04:00:00 9.2 3 Norte 9 Norte 0 -- -- 71
2019-08-14 03:00:00 10.9 5 Norte 10 Norte 0 -- -- 66
2019-08-14 02:00:00 11.7 6 Norte 12 Nordeste 0 -- -- 62
2019-08-14 01:00:00 13.4 6 Nordeste 11 Nordeste 0 -- -- 55
2019-08-14 00:00:00 15.3 4 Nordeste 14 Este 0 -- -- 48
2019-08-13 23:00:00 15.2 3 Este 12 Nordeste 0 908.4 -- 39
2019-08-13 22:00:00 17.6 3 Nordeste 10 Nordeste 0 -- -- 27
2019-08-13 21:00:00 21.7 4 Norte 21 Norte 0 -- -- 21
2019-08-13 20:00:00 23.7 7 Noroeste 23 Norte 0 -- -- 17
2019-08-13 19:00:00 24.7 7 Norte 25 Noroeste 0 -- -- 17
2019-08-13 18:00:00 25.2 2 Este 18 Sudoeste 0 -- -- 19
2019-08-13 17:00:00 25.5 6 Oeste 17 Noroeste 0 -- -- 18
2019-08-13 16:00:00 25.8 10 Sur 27 Sur 0 -- -- 17
2019-08-13 15:00:00 24.8 6 Sudoeste 25 Sudoeste 0 -- -- 19
2019-08-13 14:00:00 24.2 9 Sudoeste 21 Sudoeste 0 -- -- 21
2019-08-13 13:00:00 22.4 4 Nordeste 15 Nordeste 0 -- -- 27
2019-08-13 12:00:00 19.7 5 Nordeste 14 Nordeste 0 -- -- 30
2019-08-13 11:00:00 15.8 7 Norte 18 Norte 0 -- -- 41
2019-08-13 10:00:00 14.4 8 Nordeste 18 Nordeste 0 -- -- 48
2019-08-13 09:00:00 11.8 7 Nordeste 14 Norte 0 -- -- 60
2019-08-13 08:00:00 8.2 3 Nordeste 11 Este 0 -- -- 74
2019-08-13 07:00:00 8.4 6 Nordeste 10 Nordeste 0 -- -- 71
2019-08-13 06:00:00 9.9 5 Nordeste 13 Nordeste 0 -- -- 69
2019-08-13 05:00:00 10.9 7 Nordeste 17 Nordeste 0 -- -- 67
2019-08-13 04:00:00 11.3 6 Nordeste 14 Nordeste 0 -- -- 67
2019-08-13 03:00:00 11.9 6 Este 13 Nordeste 0 -- -- 66
2019-08-13 02:00:00 12.4 6 Nordeste 19 Nordeste 0 -- -- 65
2019-08-13 01:00:00 13.1 9 Nordeste 20 Nordeste 0 -- -- 63
2019-08-13 00:00:00 13.4 10 Nordeste 32 Nordeste 0 -- -- 61
2019-08-12 23:00:00 14.7 10 Nordeste 39 Nordeste 0 -- -- 56
2019-08-12 22:00:00 16.4 12 Nordeste 32 Nordeste 0 -- -- 44
2019-08-12 21:00:00 19.1 13 Nordeste 33 Nordeste 0 -- -- 33
2019-08-12 20:00:00 21.6 10 Nordeste 23 Nordeste 0 -- -- 28
2019-08-12 19:00:00 22.4 8 Nordeste 23 Nordeste 0 -- -- 23
2019-08-12 18:00:00 22.4 9 Norte 26 Norte 0 -- -- 24
2019-08-12 17:00:00 22.3 7 Norte 25 Norte 0 -- -- 26
2019-08-12 16:00:00 22.3 9 Nordeste 27 Norte 0 -- -- 29
2019-08-12 15:00:00 22 10 Nordeste 28 Nordeste 0 -- -- 30
2019-08-12 14:00:00 21.6 10 Nordeste 29 Nordeste 0 -- -- 30
2019-08-12 13:00:00 20.1 10 Nordeste 29 Nordeste 0 -- -- 37
2019-08-12 12:00:00 18.9 8 Norte 27 Nordeste 0 -- -- 47
2019-08-12 11:00:00 16.4 8 Norte 27 Norte 0 -- -- 62
2019-08-12 10:00:00 14.2 13 Norte 25 Noroeste 0 -- -- 70
2019-08-12 09:00:00 12.7 7 Nordeste 18 Norte 0 -- -- 77
2019-08-12 08:00:00 9.4 2 Este 8 Este 0 -- -- 89
2019-08-12 07:00:00 9.8 4 Nordeste 8 Nordeste 0 -- -- 88
2019-08-12 06:00:00 10.4 3 Nordeste 9 Norte 0 -- -- 87
2019-08-12 05:00:00 11.3 4 Norte 10 Nordeste 0 -- -- 86
2019-08-12 04:00:00 12.6 4 Nordeste 12 Nordeste 0 -- -- 82
2019-08-12 03:00:00 13.2 5 Norte 12 Nordeste 0 -- -- 79
2019-08-12 02:00:00 14.2 4 Nordeste 13 Nordeste 0 -- -- 74
2019-08-12 01:00:00 15.9 5 Nordeste 10 Nordeste 0 -- -- 68
2019-08-12 00:00:00 18 3 Norte 11 Norte 0 -- -- 38
2019-08-11 23:00:00 19 5 Noroeste 14 Norte 0 -- -- 37
2019-08-11 22:00:00 19.6 4 Noroeste 22 Noroeste 0 -- -- 38
2019-08-11 21:00:00 21.2 6 Norte 25 Norte 0 -- -- 39
2019-08-11 20:00:00 22.3 9 Noroeste 30 Noroeste 0 -- -- 37
2019-08-11 19:00:00 23.9 8 Noroeste 25 Noroeste 0 -- -- 32
2019-08-11 18:00:00 26.6 10 Oeste 44 Sur 0 -- -- 28
2019-08-11 17:00:00 27.3 12 Sudoeste 39 Sur 0 -- -- 19
2019-08-11 16:00:00 26.9 13 Sudoeste 40 Sudoeste 0 -- -- 19
2019-08-11 15:00:00 26.8 16 Sudoeste 37 Sudoeste 0 903.6 -- 21
2019-08-11 14:00:00 27.2 15 Sudoeste 35 Sudoeste 0 -- -- 19
2019-08-11 13:00:00 25.8 12 Sudoeste 33 Sur 0 -- -- 24
2019-08-11 12:00:00 23.9 7 Sudoeste 19 Sudoeste 0 -- -- 33
2019-08-11 11:00:00 21.4 5 Este 18 Norte 0 -- -- 45
2019-08-11 10:00:00 18.8 8 Norte 19 Norte 0 -- -- 56
2019-08-11 09:00:00 17.3 6 Nordeste 20 Este 0 -- -- 62
2019-08-11 08:00:00 16.8 8 Nordeste 32 Norte 0 -- -- 67
2019-08-11 07:00:00 18.4 5 Noroeste 19 Norte 0 -- -- 49
2019-08-11 06:00:00 16.2 4 Oeste 11 Norte 0 903.8 -- 57
2019-08-11 05:00:00 14.5 0 Calma 4 Noroeste 0 -- -- 57
2019-08-11 04:00:00 14.6 0 Calma 5 Norte 0 -- -- 55
2019-08-11 03:00:00 14.6 2 Nordeste 6 Nordeste 0 -- -- 52
2019-08-11 02:00:00 14.7 3 Nordeste 8 Norte 0 -- -- 51
2019-08-11 01:00:00 15.2 3 Nordeste 6 Nordeste 0 -- -- 49
2019-08-11 00:00:00 15.8 3 Nordeste 9 Norte 0 -- -- 46
2019-08-10 23:00:00 17.5 4 Nordeste 9 Norte 0 -- -- 42
2019-08-10 22:00:00 20.4 0 Calma 5 Este 0 -- -- 35
2019-08-10 21:00:00 24.4 0 Calma 22 Sudoeste 0 -- -- 27
2019-08-10 20:00:00 26.8 8 Sudoeste 28 Sudoeste 0 -- -- 21
2019-08-10 19:00:00 27.8 9 Sudoeste 30 Sur 0 -- -- 21
2019-08-10 18:00:00 28.7 11 Sudoeste 33 Sudoeste 0 -- -- 22
2019-08-10 17:00:00 29.5 18 Sudoeste 37 Sur 0 -- -- 20
2019-08-10 16:00:00 28.6 13 Sudoeste 32 Sudoeste 0 -- -- 24
2019-08-10 15:00:00 28.7 14 Sudoeste 34 Sur 0 -- -- 23
2019-08-10 14:00:00 28.3 8 Sudoeste 27 Sudoeste 0 -- -- 29
2019-08-10 13:00:00 26.9 11 Sudoeste 27 Sur 0 -- -- 36
2019-08-10 12:00:00 24.4 4 Sudoeste 17 Sudoeste 0 -- -- 46
2019-08-10 11:00:00 21.1 3 Este 12 Nordeste 0 -- -- 61
2019-08-10 10:00:00 18.3 4 Norte 13 Nordeste 0 -- -- 68
2019-08-10 09:00:00 17 5 Nordeste 15 Nordeste 0 -- -- 76
2019-08-10 08:00:00 15.5 5 Nordeste 13 Nordeste 0 -- -- 82
2019-08-10 07:00:00 15.3 3 Nordeste 12 Nordeste 0 -- -- 81
2019-08-10 06:00:00 15 0 Calma 6 Norte 0 -- -- 82
2019-08-10 05:00:00 14.8 3 Nordeste 7 Norte 0 -- -- 83
2019-08-10 04:00:00 15 4 Norte 8 Norte 0 -- -- 83
2019-08-10 03:00:00 15.3 2 Nordeste 7 Norte 0 -- -- 82
2019-08-10 02:00:00 15.5 4 Nordeste 8 Norte 0 -- -- 81
2019-08-10 01:00:00 16.4 3 Nordeste 7 Nordeste 0 -- -- 77
2019-08-10 00:00:00 17.8 4 Nordeste 13 Nordeste 0 -- -- 73
2019-08-09 23:00:00 18.8 2 Oeste 18 Norte 0 -- -- 69
2019-08-09 22:00:00 19.6 4 Norte 28 Norte 0 -- -- 66
2019-08-09 21:00:00 22.1 16 Noroeste 36 Norte 0 -- -- 69
2019-08-09 20:00:00 27.3 21 Sudoeste 47 Sudoeste 0 -- -- 42
2019-08-09 19:00:00 28.4 18 Sudoeste 48 Sudoeste 0 -- -- 40
2019-08-09 18:00:00 29.1 26 Sudoeste 45 Sur 0 -- -- 38
2019-08-09 17:00:00 29.6 14 Sudoeste 44 Sur 0 -- -- 36
2019-08-09 16:00:00 29.2 17 Sudoeste 41 Sudoeste 0 -- -- 38
2019-08-09 15:00:00 28.8 24 Sudoeste 45 Sur 0 -- -- 39
2019-08-09 14:00:00 28.8 17 Sudoeste 46 Sur 0 -- -- 39
2019-08-09 13:00:00 28.1 18 Sudoeste 44 Sur 0 -- -- 38
2019-08-09 12:00:00 26.4 20 Sudoeste 44 Sudoeste 0 -- -- 39
2019-08-09 11:00:00 24.9 23 Sudoeste 43 Sur 0 -- -- 45
2019-08-09 10:00:00 23.1 18 Sur 41 Sur 0 -- -- 54
2019-08-09 09:00:00 21 18 Sudoeste 28 Sur 0 -- -- 59
2019-08-09 08:00:00 13.1 4 Nordeste 8 Norte 0 -- -- 77
2019-08-09 07:00:00 12.5 0 Calma 7 Norte 0 -- -- 78
2019-08-09 06:00:00 13.1 3 Nordeste 6 Norte 0 -- -- 75
2019-08-09 05:00:00 13.8 2 Nordeste 7 Norte 0 -- -- 73
2019-08-09 04:00:00 14.5 0 Calma 5 Norte 0 -- -- 68
2019-08-09 03:00:00 15.3 2 Norte 5 Nordeste 0 -- -- 67
2019-08-09 02:00:00 16.6 2 Norte 4 Nordeste 0 -- -- 64
2019-08-09 01:00:00 17.9 0 Calma 3 Noroeste 0 -- -- 59
2019-08-09 00:00:00 19.4 0 Calma 4 Nordeste 0 -- -- 52
2019-08-08 23:00:00 22 0 Calma 5 Este 0 -- -- 44
2019-08-08 22:00:00 25.8 5 Sur 21 Sudoeste 0 -- -- 32
2019-08-08 21:00:00 28.1 10 Sudoeste 30 Sudoeste 0 -- -- 28
2019-08-08 20:00:00 28.8 17 Sudoeste 36 Sudoeste 0 -- -- 31
2019-08-08 19:00:00 29.5 14 Sudoeste 37 Sur 0 -- -- 31
2019-08-08 18:00:00 29.8 19 Sudoeste 47 Sudoeste 0 -- -- 32
2019-08-08 17:00:00 29.9 19 Sudoeste 41 Sudoeste 0 -- -- 31
2019-08-08 16:00:00 29.7 18 Sudoeste 36 Sudoeste 0 -- -- 32
2019-08-08 15:00:00 29 19 Sudoeste 37 Sudoeste 0 -- -- 32
2019-08-08 14:00:00 29 15 Sudoeste 33 Sur 0 -- -- 32
2019-08-08 13:00:00 27.6 14 Sudoeste 30 Sudoeste 0 -- -- 33
2019-08-08 12:00:00 25.7 11 Sudoeste 27 Sudoeste 0 -- -- 40
2019-08-08 11:00:00 23.5 10 Sudoeste 21 Sudoeste 0 -- -- 43
2019-08-08 10:00:00 19.6 6 Sudoeste 12 Sudoeste 0 -- -- 61
2019-08-08 09:00:00 15.6 2 Este 8 Norte 0 -- -- 74
2019-08-08 08:00:00 12.2 3 Norte 9 Norte 0 -- -- 83
2019-08-08 07:00:00 11.6 2 Norte 5 Nordeste 0 -- -- 85
2019-08-08 06:00:00 12.2 4 Norte 6 Nordeste 0 -- -- 82
2019-08-08 05:00:00 12.8 2 Norte 4 Norte 0 -- -- 79
2019-08-08 04:00:00 13.5 0 Calma 10 Nordeste 0 -- -- 76
2019-08-08 03:00:00 13.9 2 Norte 6 Norte 0 -- -- 74
2019-08-08 02:00:00 15.2 0 Calma 8 Sur 0 -- -- 71
2019-08-08 01:00:00 16.6 2 Nordeste 4 Norte 0 -- -- 67
2019-08-08 00:00:00 18.2 0 Calma 5 Este 0 -- -- 61
2019-08-07 23:00:00 20.8 3 Sur 14 Sudoeste 0 -- -- 52
2019-08-07 22:00:00 22.7 5 Sudoeste 18 Oeste 0 -- -- 45
2019-08-07 21:00:00 23.4 5 Sudoeste 25 Oeste 0 -- -- 40
2019-08-07 20:00:00 24 11 Sudoeste 28 Sudoeste 0 -- -- 39
2019-08-07 19:00:00 24.5 9 Sudoeste 29 Sur 0 -- -- 38
2019-08-07 18:00:00 24.5 10 Sudoeste 23 Sudoeste 0 -- -- 43
2019-08-07 17:00:00 24.6 6 Sudoeste 26 Sudoeste 0 -- -- 38
2019-08-07 16:00:00 25.1 6 Oeste 26 Sudoeste 0 -- -- 39
2019-08-07 15:00:00 25.2 6 Oeste 19 Oeste 0 -- -- 41
2019-08-07 14:00:00 25.7 9 Sudoeste 22 Sudoeste 0 -- -- 35
2019-08-07 13:00:00 25.2 10 Sudoeste 18 Sudoeste 0 -- -- 35
2019-08-07 12:00:00 25.3 7 Sudoeste 13 Sudoeste 0 -- -- 34
2019-08-07 11:00:00 24.8 3 Oeste 9 Sudoeste 0 -- -- 34
2019-08-07 10:00:00 22.4 5 Sur 10 Sur 0 -- -- 38
2019-08-07 09:00:00 18.4 2 Noroeste 10 Norte 0 -- -- 54
2019-08-07 08:00:00 15.7 4 Nordeste 9 Norte 0 -- -- 59
2019-08-07 07:00:00 15.7 3 Norte 6 Norte 0 -- -- 58
2019-08-07 06:00:00 16.7 4 Nordeste 8 Norte 0 -- -- 53
2019-08-07 05:00:00 17 3 Noroeste 8 Norte 0 -- -- 49
2019-08-07 04:00:00 18.1 0 Calma 5 Norte 0 -- -- 45
2019-08-07 03:00:00 17.6 3 Nordeste 6 Norte 0 -- -- 41
2019-08-07 02:00:00 17.8 0 Calma 5 Norte 0 -- -- 40
2019-08-07 01:00:00 18.2 3 Norte 5 Nordeste 0 -- -- 36
2019-08-07 00:00:00 19.2 0 Calma 5 Nordeste 0 -- -- 34
2019-08-06 23:00:00 21.4 2 Norte 4 Nordeste 0 -- -- 28
2019-08-06 22:00:00 24.7 0 Calma 17 Sudoeste 0 -- -- 21
2019-08-06 21:00:00 28.9 6 Sudoeste 21 Sudoeste 0 -- -- 14
2019-08-06 20:00:00 30.4 9 Sudoeste 27 Oeste 0 -- -- 13
2019-08-06 19:00:00 31.1 10 Sudoeste 35 Sudoeste 0 -- -- 12
2019-08-06 18:00:00 31.4 14 Sudoeste 35 Sudoeste 0 -- -- 12
2019-08-06 17:00:00 32.3 12 Sudoeste 35 Sur 0 -- -- 13
2019-08-06 16:00:00 32.4 16 Sudoeste 35 Sudoeste 0 -- -- 11
2019-08-06 15:00:00 31.8 16 Sudoeste 32 Oeste 0 -- -- 14
2019-08-06 14:00:00 30.7 14 Sudoeste 34 Sur 0 -- -- 14
2019-08-06 13:00:00 30.6 13 Sudoeste 33 Sudoeste 0 -- -- 17
2019-08-06 12:00:00 28.9 12 Sudoeste 28 Sur 0 -- -- 20
2019-08-06 11:00:00 25.8 9 Sudoeste 17 Sudoeste 0 -- -- 25
2019-08-06 10:00:00 22 8 Sur 12 Sudoeste 0 -- -- 36
2019-08-06 09:00:00 15.7 2 Norte 9 Norte 0 -- -- 49
2019-08-06 08:00:00 11.8 5 Norte 10 Nordeste 0 -- -- 60
2019-08-06 07:00:00 11.2 5 Norte 10 Norte 0 -- -- 59
2019-08-06 06:00:00 11.7 3 Nordeste 11 Nordeste 0 -- -- 59
2019-08-06 05:00:00 11.9 6 Norte 9 Nordeste 0 -- -- 55
2019-08-06 04:00:00 12.5 4 Nordeste 8 Nordeste 0 -- -- 53
2019-08-06 03:00:00 13.4 3 Este 10 Norte 0 -- -- 49
2019-08-06 02:00:00 14.1 3 Nordeste 8 Nordeste 0 -- -- 47
2019-08-06 01:00:00 15.3 3 Norte 7 Norte 0 -- -- 44
2019-08-06 00:00:00 17.1 4 Nordeste 6 Nordeste 0 -- -- 39
2019-08-05 23:00:00 20 4 Norte 7 Nordeste 0 -- -- 31
2019-08-05 22:00:00 24.5 0 Calma 9 Sur 0 -- -- 25
2019-08-05 21:00:00 29.2 5 Sudoeste 21 Oeste 0 -- -- 14
2019-08-05 20:00:00 30.7 8 Sudoeste 28 Sudoeste 0 -- -- 14
2019-08-05 19:00:00 31.7 9 Sudoeste 26 Sudoeste 0 -- -- 12
2019-08-05 18:00:00 32 12 Sudoeste 35 Sur 0 -- -- 12
2019-08-05 17:00:00 32.2 12 Sudoeste 30 Sudoeste 0 -- -- 13
2019-08-05 16:00:00 32.4 11 Sudoeste 33 Oeste 0 -- -- 14
2019-08-05 15:00:00 32 14 Sudoeste 38 Sur 0 -- -- 14
2019-08-05 14:00:00 31.6 17 Sudoeste 40 Sur 0 -- -- 16
2019-08-05 13:00:00 30.7 15 Sudoeste -- -- -- -- -- 20
2019-08-05 12:00:00 -- -- -- -- -- -- -- -- --
2019-08-05 11:00:00 25.7 6 Sudoeste 15 Sur 0 -- -- 32
2019-08-05 10:00:00 20.2 3 Sudeste 8 Sudoeste 0 -- -- 47
2019-08-05 09:00:00 15.3 3 Nordeste 7 Nordeste 0 898.1 -- 50
2019-08-05 08:00:00 11.1 4 Norte 9 Norte 0 -- -- 59
2019-08-05 07:00:00 10.5 4 Nordeste 8 Norte 0 -- -- 60
2019-08-05 06:00:00 11.1 3 Este 9 Norte 0 -- -- 58
2019-08-05 05:00:00 11.1 2 Norte 6 Nordeste 0 -- -- 57
2019-08-05 04:00:00 11.9 5 Nordeste 9 Nordeste 0 -- -- 54
2019-08-05 03:00:00 12.9 3 Norte 10 Nordeste 0 -- -- 50
2019-08-05 02:00:00 13.7 4 Nordeste 6 Norte 0 -- -- 48
2019-08-05 01:00:00 15.1 4 Nordeste 7 Nordeste 0 -- -- 44
2019-08-05 00:00:00 16.8 4 Nordeste 9 Nordeste 0 -- -- 40
2019-08-04 23:00:00 19.4 3 Nordeste 6 Nordeste 0 -- -- 32
2019-08-04 22:00:00 23.4 0 Calma 3 Nordeste 0 -- -- 25
2019-08-04 21:00:00 28.5 4 Sur 20 Sudoeste 0 -- -- 17
2019-08-04 20:00:00 30.4 9 Sudoeste 26 Sur 0 -- -- 14
2019-08-04 19:00:00 31.4 9 Sudoeste 28 Sudoeste 0 -- -- 12
2019-08-04 18:00:00 32 14 Sudoeste 35 Sudoeste 0 -- -- 14
2019-08-04 17:00:00 32.1 14 Sudoeste 41 Sudoeste 0 -- -- 14
2019-08-04 16:00:00 32.2 16 Sudoeste 39 Sur 0 -- -- 13
2019-08-04 15:00:00 31.7 16 Sudoeste 38 Sudoeste 0 -- -- 14
2019-08-04 14:00:00 31.6 15 Sudoeste 34 Sudoeste 0 -- -- 16
2019-08-04 13:00:00 30.9 12 Sudoeste 31 Sur 0 -- -- 18
2019-08-04 12:00:00 29.1 12 Sudoeste 23 Sur 0 -- -- 26
2019-08-04 11:00:00 26.3 6 Sudoeste 14 Sur 0 -- -- 37
2019-08-04 10:00:00 21 5 Sudoeste 11 Sudoeste 0 -- -- 56
2019-08-04 09:00:00 15.4 3 Nordeste 8 Norte 0 -- -- 58
2019-08-04 08:00:00 11.2 5 Nordeste 9 Nordeste 0 -- -- 60
2019-08-04 07:00:00 10.4 4 Nordeste 8 Nordeste 0 -- -- 57
2019-08-04 06:00:00 11.1 5 Nordeste 6 Nordeste 0 -- -- 52
2019-08-04 05:00:00 12.3 0 Calma 10 Norte 0 -- -- 47
2019-08-04 04:00:00 12.7 5 Nordeste 11 Norte 0 -- -- 44
2019-08-04 03:00:00 12.9 5 Nordeste 11 Norte 0 -- -- 45
2019-08-04 02:00:00 13.8 4 Nordeste 9 Nordeste 0 -- -- 43
2019-08-04 01:00:00 15.4 3 Nordeste 9 Noroeste 0 -- -- 38
2019-08-04 00:00:00 17 4 Nordeste 9 Norte 0 -- -- 32
2019-08-03 23:00:00 19.5 4 Nordeste 7 Norte 0 -- -- 29
2019-08-03 22:00:00 24 0 Calma 8 Sudoeste 0 -- -- 21
2019-08-03 21:00:00 28.9 5 Sudoeste 22 Sur 0 -- -- 12
2019-08-03 20:00:00 30.8 15 Sur 30 Sudoeste 0 888.3 -- 10
2019-08-03 19:00:00 31.5 11 Sudoeste 30 Sudoeste 0 -- -- 11
2019-08-03 18:00:00 32.3 14 Sudoeste 36 Sudoeste 0 -- -- 11
2019-08-03 17:00:00 32.4 17 Sudoeste 33 Sudoeste 0 -- -- 11
2019-08-03 16:00:00 32.9 18 Sudoeste 37 Sur 0 -- -- 12
2019-08-03 15:00:00 32.4 16 Sudoeste 32 Sur 0 -- -- 14
2019-08-03 14:00:00 32.3 10 Sudoeste 27 Sur 0 -- -- 18
2019-08-03 13:00:00 31 9 Sur 23 Sur 0 -- -- 25
2019-08-03 12:00:00 28.2 10 Sudoeste 22 Sudoeste 0 -- -- 35
2019-08-03 11:00:00 25.8 9 Sudoeste 20 Sudoeste 0 -- -- 43
2019-08-03 10:00:00 22.1 6 Sudoeste 12 Sudoeste 0 -- -- 55
2019-08-03 09:00:00 17.4 3 Norte 10 Nordeste 0 -- -- 66
2019-08-03 08:00:00 13.9 3 Nordeste 6 Norte 0 -- -- 72
2019-08-03 07:00:00 13.6 4 Nordeste 9 Norte 0 -- -- 71
2019-08-03 06:00:00 15.4 4 Norte 8 Nordeste 0 -- -- 63
2019-08-03 05:00:00 17.3 4 Nordeste 15 Norte 0 -- -- 55
2019-08-03 04:00:00 19.4 6 Nordeste 19 Nordeste 0 -- -- 48
2019-08-03 03:00:00 19.8 9 Nordeste 17 Nordeste 0 -- -- 47
2019-08-03 02:00:00 20 9 Norte 15 Norte 0 -- -- 45
2019-08-03 01:00:00 21.3 8 Nordeste 15 Nordeste 0 -- -- 40
2019-08-03 00:00:00 22.7 8 Nordeste 18 Nordeste 0 887.3 -- 36
2019-08-02 23:00:00 24.2 9 Nordeste 22 Nordeste 0 -- -- 33
2019-08-02 22:00:00 25.6 6 Norte 28 Nordeste 0 -- -- 32
2019-08-02 21:00:00 27.6 0 Calma 13 Sudoeste 0 -- -- 21
2019-08-02 20:00:00 30.9 6 Sudoeste 18 Sur 0 -- -- 14
2019-08-02 19:00:00 31.9 7 Sudoeste 18 Sudoeste 0 -- -- 14
2019-08-02 18:00:00 32.4 10 Sudoeste 21 Sudoeste 0 -- -- 12
2019-08-02 17:00:00 32.7 8 Sur 28 Sur 0 -- -- 12
2019-08-02 16:00:00 32.2 7 Sudoeste 18 Sudoeste 0 -- -- 17
2019-08-02 15:00:00 32.3 7 Sur 18 Sudoeste 0 -- -- 18
2019-08-02 14:00:00 30.7 4 Este 22 Nordeste 0 -- -- 22
2019-08-02 13:00:00 30.2 4 Noroeste 13 Este 0 -- -- 24
2019-08-02 12:00:00 27.7 4 Norte 14 Norte 0 -- -- 29
2019-08-02 11:00:00 25.2 4 Nordeste 15 Norte 0 -- -- 49
2019-08-02 10:00:00 21.7 8 Norte 19 Nordeste 0 -- -- 65
2019-08-02 09:00:00 18.8 9 Nordeste 17 Nordeste 0 -- -- 76
2019-08-02 08:00:00 15.1 4 Norte 9 Nordeste 0 -- -- 86
2019-08-02 07:00:00 14.6 6 Nordeste 10 Nordeste 0 -- -- 87
2019-08-02 06:00:00 14.9 6 Nordeste 10 Nordeste 0 -- -- 85
2019-08-02 05:00:00 16 5 Nordeste 8 Este 0 -- -- 81
2019-08-02 04:00:00 16.3 5 Nordeste 10 Nordeste 0 -- -- 79
2019-08-02 03:00:00 17.3 4 Nordeste 9 Nordeste 0 -- -- 74
2019-08-02 02:00:00 18.6 5 Nordeste 12 Este 0 -- -- 69
2019-08-02 01:00:00 20.3 5 Este 16 Nordeste 0 -- -- 66
2019-08-02 00:00:00 21.1 5 Este 14 Norte 0 -- -- 59
2019-08-01 23:00:00 21.7 4 Nordeste 10 Nordeste 0 -- -- 36
2019-08-01 22:00:00 25.2 4 Oeste 26 Norte 0 -- -- 28
2019-08-01 21:00:00 27.8 4 Sudoeste 20 Sur 0 -- -- 22
2019-08-01 20:00:00 29.2 8 Sudoeste 26 Sur 0 -- -- 20
2019-08-01 19:00:00 29.9 11 Sudoeste 32 Sudoeste 0 -- -- 19
2019-08-01 18:00:00 30.6 14 Sudoeste 41 Sur 0 -- -- 18
2019-08-01 17:00:00 30.8 19 Sur 40 Sur 0 -- -- 18
2019-08-01 16:00:00 30.6 20 Sur 36 Sudoeste 0 -- -- 20
2019-08-01 15:00:00 30.3 19 Sur 38 Sudoeste 0 -- -- 22
2019-08-01 14:00:00 29.6 10 Sudoeste 26 Sudoeste 0 -- -- 26
2019-08-01 13:00:00 27.9 8 Sudoeste 23 Sudoeste 0 -- -- 36
2019-08-01 12:00:00 25 8 Sudoeste 22 Sur 0 -- -- 43
2019-08-01 11:00:00 22.2 11 Sudoeste 24 Sur 0 -- -- 50
2019-08-01 10:00:00 21 13 Sur 25 Sur 0 -- -- 51
2019-08-01 09:00:00 19 12 Sudoeste 20 Sudoeste 0 -- -- 56
2019-08-01 08:00:00 14.6 3 Sur 5 Sur 0 -- -- 81
2019-08-01 07:00:00 15 3 Norte 5 Nordeste 0 -- -- 83
2019-08-01 06:00:00 16.2 0 Calma 6 Norte 0 -- -- 80
2019-08-01 05:00:00 16.8 5 Norte 10 Norte 0 -- -- 78
2019-08-01 04:00:00 17.2 3 Norte 5 Norte 0 889.1 0.3 76
2019-08-01 03:00:00 17.8 0 Calma 7 Norte 0 888.7 -- 70
2019-08-01 02:00:00 19.5 3 Nordeste 8 Este 0 889.5 -- 64
2019-08-01 01:00:00 20.6 3 Este 12 Norte 0 888.8 -- 56
2019-08-01 00:00:00 21.2 7 Norte 13 Norte 0 -- -- 48
2019-07-31 23:00:00 22.4 6 Nordeste 12 Norte 0 -- -- 43
2019-07-31 22:00:00 23.7 6 Nordeste 18 Nordeste 0 -- -- 38
2019-07-31 21:00:00 25.7 8 Nordeste 26 Nordeste 0 887.1 -- 33
2019-07-31 20:00:00 27.6 10 Nordeste 33 Sudoeste 0 -- -- 30
2019-07-31 19:00:00 29.9 6 Sudoeste 27 Sudoeste 0 -- -- 27
2019-07-31 18:00:00 30.2 12 Sudoeste 26 Sur 0 -- -- 25
2019-07-31 17:00:00 30.1 13 Sudoeste 28 Sudoeste 0 -- -- 26
2019-07-31 16:00:00 29.8 12 Sur 39 Sur 0 -- -- 28
2019-07-31 15:00:00 30 6 Sudeste 26 Sudoeste 0 -- -- 27
2019-07-31 14:00:00 28.7 9 Sudoeste 22 Sur 0 -- -- 29
2019-07-31 13:00:00 27.3 5 Este 19 Sudeste 0 -- -- 32
2019-07-31 12:00:00 23.4 9 Norte 22 Norte 0 -- -- 39
2019-07-31 11:00:00 20.9 11 Norte 20 Norte 0 906.7 -- 44
2019-07-31 10:00:00 18.6 8 Norte 17 Norte 0 -- -- 51
2019-07-31 09:00:00 16 10 Norte 19 Nordeste 0 -- -- 56
2019-07-31 08:00:00 14.1 11 Nordeste 21 Nordeste 0 -- -- 62
2019-07-31 07:00:00 13.2 9 Nordeste 21 Norte 0 -- -- 66
2019-07-31 06:00:00 13.8 10 Nordeste 22 Nordeste 0 -- -- 63
2019-07-31 05:00:00 13.4 9 Nordeste 19 Norte 0 -- -- 66
2019-07-31 04:00:00 12.7 9 Nordeste 19 Nordeste 0 -- -- 69
2019-07-31 03:00:00 13.1 10 Nordeste 23 Nordeste 0 -- -- 67
2019-07-31 02:00:00 13.9 9 Nordeste 23 Nordeste 0 -- -- 64
2019-07-31 01:00:00 14.5 10 Nordeste 25 Nordeste 0 -- -- 61
2019-07-31 00:00:00 15.7 11 Nordeste 27 Nordeste 0 -- -- 57
2019-07-30 23:00:00 17.4 9 Nordeste 26 Norte 0 -- -- 49
2019-07-30 22:00:00 19.6 11 Nordeste 28 Nordeste 0 -- -- 40
2019-07-30 21:00:00 22.9 12 Nordeste 29 Nordeste 0 -- -- 31
2019-07-30 20:00:00 25.3 6 Norte 17 Noroeste 0 -- -- 22
2019-07-30 19:00:00 26.2 3 Oeste 15 Nordeste 0 -- -- 20
2019-07-30 18:00:00 26.5 6 Oeste 22 Sudoeste 0 -- -- 21
2019-07-30 17:00:00 25.6 8 Norte 17 Norte 0 -- -- 22
2019-07-30 16:00:00 25.2 5 Noroeste 20 Norte 0 -- -- 23
2019-07-30 15:00:00 25.1 6 Sudoeste 17 Nordeste 0 -- -- 24
2019-07-30 14:00:00 23.6 6 Este 21 Nordeste 0 -- -- 30
2019-07-30 13:00:00 21.5 9 Nordeste 26 Nordeste 0 -- -- 40
2019-07-30 12:00:00 19.6 9 Nordeste 26 Norte 0 -- -- 44
2019-07-30 11:00:00 17.8 12 Nordeste 29 Norte 0 -- -- 51
2019-07-30 10:00:00 16.7 9 Nordeste 24 Norte 0 -- -- 51
2019-07-30 09:00:00 15 7 Nordeste 18 Nordeste 0 -- -- 58
2019-07-30 08:00:00 13.4 6 Este 13 Este 0 -- -- 66
2019-07-30 07:00:00 11.7 3 Este 13 Norte 0 -- -- 71
2019-07-30 06:00:00 11.9 2 Sudoeste 6 Norte 0 -- -- 69
2019-07-30 05:00:00 13.4 0 Calma 9 Este 0 -- -- 62
2019-07-30 04:00:00 15.2 2 Sudeste 13 Noroeste 0 -- -- 52
2019-07-30 03:00:00 17.1 3 Noroeste 21 Noroeste 0 -- -- 45
2019-07-30 02:00:00 18.3 5 Noroeste 24 Noroeste 0 -- -- 32
2019-07-30 01:00:00 19.3 5 Noroeste 28 Noroeste 0 -- -- 28
2019-07-30 00:00:00 20.4 8 Noroeste 29 Noroeste 0 -- -- 28
2019-07-29 23:00:00 20.8 3 Oeste 11 Noroeste 0 -- -- 29
2019-07-29 22:00:00 23.1 4 Oeste 20 Noroeste 0 -- -- 26
2019-07-29 21:00:00 25.4 9 Norte 26 Norte 0 -- -- 30
2019-07-29 20:00:00 28.2 7 Sudoeste 22 Sudoeste 0 -- -- 15
2019-07-29 19:00:00 29.1 9 Sudoeste 27 Oeste 0 -- -- 18
2019-07-29 18:00:00 29.6 15 Sur 36 Sudoeste 0 -- -- 18
2019-07-29 17:00:00 29.6 16 Sudoeste 35 Sur 0 -- -- 18
2019-07-29 16:00:00 29.4 18 Sudoeste 36 Sur 0 -- -- 18
2019-07-29 15:00:00 29.5 13 Sudoeste 37 Sudoeste 0 -- -- 21
2019-07-29 14:00:00 28.8 15 Sudoeste 32 Sur 0 -- -- 21
2019-07-29 13:00:00 27.9 15 Sur 35 Sur 0 -- -- 24
2019-07-29 12:00:00 26.8 11 Sur 24 Sur 0 -- -- 23
2019-07-29 11:00:00 24 4 Sur 13 Sudoeste 0 -- -- 30
2019-07-29 10:00:00 18.8 2 Sudeste 6 Nordeste 0 -- -- 41
2019-07-29 09:00:00 14.2 3 Nordeste 9 Norte 0 -- -- 55
2019-07-29 08:00:00 10.4 4 Nordeste 10 Norte 0 888.5 -- 65
2019-07-29 07:00:00 9.2 3 Nordeste 10 Norte 0 -- -- 68
2019-07-29 06:00:00 9.8 6 Norte 11 Nordeste 0 -- -- 64
2019-07-29 05:00:00 10.5 3 Norte 11 Norte 0 -- -- 61
2019-07-29 04:00:00 11 4 Nordeste 11 Norte 0 -- -- 57
2019-07-29 03:00:00 11.4 5 Norte 10 Norte 0 -- -- 55
2019-07-29 02:00:00 12.1 3 Este 8 Norte 0 -- -- 52
2019-07-29 01:00:00 13.2 6 Nordeste 9 Nordeste 0 -- -- 49
2019-07-29 00:00:00 14.7 4 Norte 6 Norte 0 -- -- 45
2019-07-28 23:00:00 17.3 0 Calma 5 Este 0 -- -- 37
2019-07-28 22:00:00 20.5 2 Nordeste 18 Norte 0 -- -- 30
2019-07-28 21:00:00 23.6 6 Norte 16 Norte 0 -- -- 24
2019-07-28 20:00:00 25.3 3 Oeste 13 Noroeste 0 -- -- 26
2019-07-28 19:00:00 26.2 4 Noroeste 18 Sudoeste 0 -- -- 22
2019-07-28 18:00:00 25.9 8 Este 21 Sudoeste 0 -- -- 23
2019-07-28 17:00:00 26.1 7 Sudoeste 29 Sudoeste 0 -- -- 23
2019-07-28 16:00:00 25.8 7 Sur 22 Sur 0 -- -- 24
2019-07-28 15:00:00 24.5 9 Norte 25 Sur 0 -- -- 23
2019-07-28 14:00:00 24.2 10 Sur 20 Sudoeste 0 -- -- 26
2019-07-28 13:00:00 22.3 5 Oeste 18 Este 0 -- -- 38
2019-07-28 12:00:00 20 6 Nordeste 16 Nordeste 0 -- -- 44
2019-07-28 11:00:00 18 6 Este 19 Nordeste 0 -- -- 52
2019-07-28 10:00:00 14.7 6 Nordeste 14 Nordeste 0 -- -- 63
2019-07-28 09:00:00 11.6 4 Nordeste 8 Nordeste 0 -- -- 79
2019-07-28 08:00:00 8 2 Sudoeste 8 Norte 0 -- -- 90
2019-07-28 07:00:00 7.3 3 Nordeste 8 Nordeste 0 -- -- 90
2019-07-28 06:00:00 7.5 2 Sudeste 6 Nordeste 0 -- -- 87
2019-07-28 05:00:00 8.1 0 Calma 6 Nordeste 0 -- -- 86
2019-07-28 04:00:00 9.2 2 Norte 6 Norte 0 -- -- 83
2019-07-28 03:00:00 10.7 3 Sudoeste 9 Este 0 -- -- 78
2019-07-28 02:00:00 12.4 5 Nordeste 16 Nordeste 0 -- -- 74
2019-07-28 01:00:00 13.3 6 Nordeste 17 Este 0 -- -- 72
2019-07-28 00:00:00 13.9 8 Nordeste 23 Norte 0 881.9 -- 71
2019-07-27 23:00:00 15.2 10 Nordeste 23 Nordeste 0 -- -- 67
2019-07-26 12:00:00 26.3 6 Sudeste 18 Sur 0 -- -- 36
2019-07-26 11:00:00 23.7 3 Noroeste 8 Noroeste 0 -- -- 46
2019-07-26 10:00:00 21.9 2 Sudoeste 13 Sudoeste 0 -- -- 57
2019-07-26 09:00:00 19.6 10 Nordeste 22 Nordeste 0 -- -- 67
2019-07-26 08:00:00 18.8 5 Nordeste 11 Nordeste 0 -- -- 58
2019-07-26 07:00:00 18.5 4 Norte 7 Nordeste 0 -- -- 54
2019-07-26 06:00:00 17.7 3 Norte 9 Norte 0 -- -- 55
2019-07-26 05:00:00 17.3 2 Este 6 Nordeste 0 -- -- 57
2019-07-26 04:00:00 18.3 0 Calma 8 Norte 0 -- -- 53
2019-07-26 03:00:00 20.1 4 Norte 7 Norte 0 -- -- 47
2019-07-26 02:00:00 21.1 3 Nordeste 9 Norte 0 -- -- 42
2019-07-26 01:00:00 21.4 4 Norte 17 Norte 0 -- -- 38
2019-07-26 00:00:00 20.7 6 Norte 12 Norte 0 -- -- 41
2019-07-25 23:00:00 24 2 Este 4 Este 0 885 -- 32
2019-07-25 22:00:00 27.6 0 Calma 12 Sudoeste 0 -- -- 27
2019-07-25 21:00:00 30.3 5 Sudoeste 22 Sudoeste 0 -- -- 20
2019-07-25 20:00:00 31.4 10 Sudoeste 30 Sur 0 -- -- 19
2019-07-25 19:00:00 32.6 15 Sur 35 Oeste 0 -- -- 16
2019-07-25 18:00:00 32.7 13 Sudoeste 44 Sur 0 -- -- 17
2019-07-25 17:00:00 33.3 12 Sudoeste 38 Sudoeste 0 -- -- 17
2019-07-25 16:00:00 33.2 15 Sudoeste 42 Sur 0 -- -- 18
2019-07-25 15:00:00 32.1 14 Sudoeste 40 Sudoeste 0 -- -- 20
2019-07-25 14:00:00 32.1 17 Sudoeste 34 Sudoeste 0 -- -- 21
2019-07-25 13:00:00 31.7 15 Sudoeste 28 Sur 0 -- -- 24
2019-07-25 12:00:00 30 12 Sudoeste 24 Sudoeste 0 -- -- 26
2019-07-25 11:00:00 27.9 10 Sur 23 Sudoeste 0 -- -- 28
2019-07-25 10:00:00 25.8 13 Sur -- -- -- -- -- 31
2019-07-25 09:00:00 18 3 Sudoeste 8 Sudoeste 0 -- -- 60
2019-07-25 08:00:00 15.2 3 Nordeste 5 Norte 0 -- -- 61
2019-07-25 07:00:00 14.8 4 Norte 8 Norte 0 -- -- 62
2019-07-25 06:00:00 16.6 3 Nordeste 9 Norte 0 -- -- 57
2019-07-25 05:00:00 18 2 Nordeste 10 Norte 0 -- -- 51
2019-07-25 04:00:00 20.4 3 Norte 13 Norte 0 -- -- 43
2019-07-25 03:00:00 24.9 2 Noroeste 28 Sur 0 -- -- 30
2019-07-25 02:00:00 26.2 11 Sur 28 Sur 0 -- -- 28
2019-07-25 01:00:00 26.6 7 Sur 19 Sudoeste 0 -- -- 28
2019-07-25 00:00:00 27.4 10 Sur 24 Sudeste 0 -- -- 26
2019-07-24 23:00:00 22.7 3 Norte 8 Norte 0 -- -- 36
2019-07-24 22:00:00 26.2 2 Norte 5 Sudeste 0 -- -- 28
2019-07-24 21:00:00 31.1 4 Sur 28 Sudoeste 0 -- -- 18
2019-07-24 20:00:00 32.8 14 Sur 28 Sur 0 -- -- 15
2019-07-24 19:00:00 33.2 18 Sudoeste 34 Sudoeste 0 -- -- 15
2019-07-24 18:00:00 34.2 16 Sudoeste 40 Sur 0 -- -- 14
2019-07-24 17:00:00 34.4 14 Sudoeste 38 Sudoeste 0 -- -- 14
2019-07-24 16:00:00 33.7 12 Sur 35 Sur 0 -- -- 14
2019-07-24 15:00:00 34.1 12 Sur 35 Sudoeste 0 -- -- 15
2019-07-24 14:00:00 33.5 12 Sur 32 Sur 0 -- -- 17
2019-07-24 13:00:00 32.2 12 Sur 29 Sur 0 -- -- 20
2019-07-24 12:00:00 30.7 13 Sur 32 Sudoeste 0 -- -- 19
2019-07-24 11:00:00 28.5 12 Sur 24 Sur 0 -- -- 23
2019-07-24 10:00:00 20.9 2 Nordeste 7 Nordeste 0 -- -- 53
2019-07-24 09:00:00 18.3 4 Norte 9 Norte 0 897.4 -- 62
2019-07-24 08:00:00 16.1 4 Nordeste 10 Norte 0 -- -- 68
2019-07-24 07:00:00 16.1 2 Nordeste 5 Norte 0 -- -- 68
2019-07-24 06:00:00 16.8 2 Norte 9 Norte 0 -- -- 63
2019-07-24 05:00:00 17.5 5 Nordeste 13 Norte 0 -- -- 60
2019-07-24 04:00:00 18.8 5 Norte 13 Norte 0 -- -- 55
2019-07-24 03:00:00 19 7 Norte 12 Norte 0 -- -- 54
2019-07-24 02:00:00 19.7 2 Sudoeste 8 Norte 0 -- -- 54
2019-07-24 01:00:00 20.2 3 Norte 9 Oeste 0 -- -- 50
2019-07-24 00:00:00 22.7 3 Oeste 20 Sudoeste 0 -- -- 42
2019-07-23 23:00:00 25.5 7 Sudoeste 37 Sudoeste 0 -- -- 33
2019-07-23 22:00:00 28.2 14 Sudoeste 52 Sur 0 -- -- 26
2019-07-23 21:00:00 31.8 7 Sur 36 Sudoeste 0 -- -- 17
2019-07-23 20:00:00 33 13 Sur 34 Sudoeste 0 -- -- 15
2019-07-23 19:00:00 34.2 16 Sur 35 Sudoeste 0 -- -- 14
2019-07-23 18:00:00 34.2 16 Sur 39 Sur 0 -- -- 14
2019-07-23 17:00:00 34.1 12 Sudoeste 41 Sudoeste 0 -- -- 15
2019-07-23 16:00:00 34.9 10 Sur 30 Sudoeste 0 -- -- 14
2019-07-23 15:00:00 34.1 18 Sur 39 Sur 0 -- -- 14
2019-07-23 14:00:00 32.9 17 Sudoeste 33 Sudoeste 0 -- -- 16
2019-07-23 13:00:00 32.1 13 Sur 30 Sudoeste 0 -- -- 16
2019-07-23 12:00:00 29.5 4 Sur 13 Sudoeste 0 -- -- 21
2019-07-23 11:00:00 27.1 4 Sudoeste 11 Noroeste 0 914.9 19.2 22
2019-07-23 10:00:00 21 2 Sur 5 Nordeste 0 -- -- 47
2019-07-23 09:00:00 17.9 3 Norte 7 Norte 0 -- -- 58
2019-07-23 08:00:00 13.4 2 Nordeste 7 Norte 0 895.7 -- 71
2019-07-23 07:00:00 12.4 4 Nordeste 8 Nordeste 0 -- -- 74
2019-07-23 06:00:00 12.9 3 Nordeste 6 Norte 0 -- -- 72
2019-07-23 05:00:00 13.7 4 Nordeste 7 Nordeste 0 -- -- 70
2019-07-23 04:00:00 14.9 2 Norte 8 Nordeste 0 -- -- 66
2019-07-23 03:00:00 16.2 2 Norte 7 Norte 0 -- -- 62
2019-07-23 02:00:00 17.8 3 Nordeste 6 Norte 0 -- -- 58
2019-07-23 01:00:00 19.7 2 Nordeste 9 Norte 0 -- -- 53
2019-07-23 00:00:00 21.9 4 Norte 7 Norte 0 -- -- 46
2019-07-22 23:00:00 24.6 3 Norte 19 Sudeste 0 -- -- 37
2019-07-22 22:00:00 29.8 7 Sur 22 Sudoeste 0 -- -- 24
2019-07-22 21:00:00 31.5 12 Sur 31 Sur 0 894.1 -- 20
2019-07-22 20:00:00 33.2 14 Sur 32 Sur 0 -- -- 16
2019-07-22 19:00:00 34.3 18 Sur 35 Sur 0 -- -- 14
2019-07-22 18:00:00 34.3 7 Sur 35 Sur 0 -- -- 14
2019-07-22 17:00:00 34.4 16 Sur 37 Sudoeste 0 -- -- 14
2019-07-22 16:00:00 35.1 10 Sur 33 Sudoeste 0 -- -- 13
2019-07-22 15:00:00 34 15 Sur 28 Sudoeste 0 -- -- 13
2019-07-22 14:00:00 33.1 12 Sur 30 Sudoeste 0 -- -- 13
2019-07-22 13:00:00 31.7 14 Sur 30 Sudoeste 0 -- -- 13
2019-07-22 12:00:00 30.2 14 Sur 27 Sur 0 -- -- 13
2019-07-22 11:00:00 28.4 8 Sur 17 Sudoeste 0 -- -- 18
2019-07-22 10:00:00 22.9 3 Norte -- -- -- -- -- 45
2019-07-22 09:00:00 -- -- -- -- -- -- -- -- --
2019-07-22 08:00:00 -- -- -- -- -- -- -- -- --
2019-07-22 07:00:00 -- -- -- -- -- -- -- -- --
2019-07-22 06:00:00 -- -- -- -- -- -- -- -- --
2019-07-22 05:00:00 -- -- -- -- -- -- -- -- --
2019-07-22 04:00:00 -- -- -- -- -- -- -- -- --
2019-07-22 03:00:00 -- -- -- -- -- -- -- -- --
2019-07-22 02:00:00 -- -- -- -- -- -- -- -- --
2019-07-22 01:00:00 21.1 3 Este 13 Nordeste 0 894 4.6 65
2019-07-22 00:00:00 21.6 3 Este 16 Norte 0 890.6 1.3 64
2019-07-21 23:00:00 22.4 10 Norte 16 Norte 0 888.3 -4 69
2019-07-21 22:00:00 24.6 4 Nordeste 21 Sudeste 0 889.4 -9 53
2019-07-21 21:00:00 28.4 5 Este 22 Este 0 889.3 -14.3 31
2019-07-21 20:00:00 30 5 Este 36 Nordeste 0 892.3 -11.9 31
2019-07-21 19:00:00 32.4 15 Nordeste 36 Nordeste 0 898.4 -10 26
2019-07-21 18:00:00 34.2 9 Sur 23 Sur 0 903.6 -6.8 20
2019-07-21 17:00:00 34.7 8 Sur 24 Sudoeste 0 904.2 -8.9 19
2019-07-21 16:00:00 34.4 6 Sur 23 Sur 0 908.4 -4.8 21
2019-07-21 15:00:00 33.7 6 Oeste 23 Sur 0 910.4 -2.5 21
2019-07-21 14:00:00 33.3 9 Sur 26 Sur 0 913.1 1.3 22
2019-07-21 13:00:00 31.5 11 Sudoeste 28 Sudoeste 0 913.2 -- 24
2019-07-21 12:00:00 29.4 9 Sudoeste 24 Sur 0 912.9 -- 27
2019-07-21 11:00:00 27.8 6 Sur 22 Sur 0 911.8 -- 30
2019-07-21 10:00:00 23.8 3 Norte 9 Norte 0 -- -- 47
2019-07-21 09:00:00 19.9 5 Nordeste 9 Nordeste 0 -- -- 68
2019-07-21 08:00:00 16.4 5 Norte 9 Norte 0 -- -- 76
2019-07-21 07:00:00 15.9 3 Nordeste 11 Norte 0 -- -- 77
2019-07-21 06:00:00 16.8 4 Norte 9 Norte 0 -- -- 74
2019-07-21 05:00:00 18.4 2 Norte 8 Norte 0 -- -- 68
2019-07-21 04:00:00 20.5 3 Norte 6 Sudoeste 0 -- -- 61
2019-07-21 03:00:00 24 4 Sur 19 Sur 0 -- -- 48
2019-07-21 02:00:00 25.2 12 Sur 28 Sudoeste 0 -- -- 44
2019-07-21 01:00:00 22.1 2 Sudoeste 12 Sudoeste 0 -- -- 47
2019-07-21 00:00:00 22 3 Nordeste 8 Nordeste 0 -- -- 47
2019-07-20 23:00:00 23.1 3 Nordeste 10 Norte 0 -- -- 44
2019-07-20 22:00:00 27.2 0 Calma 14 Sudoeste 0 -- -- 32
2019-07-20 21:00:00 31.2 5 Sudoeste 20 Sudoeste 0 -- -- 21
2019-07-20 20:00:00 32.2 5 Sudoeste 19 Sudoeste 0 -- -- 21
2019-07-20 19:00:00 33.3 9 Sudoeste 24 Sudoeste 0 -- -- 19
2019-07-20 18:00:00 33.6 11 Sur 27 Sur 0 -- -- 19
2019-07-20 17:00:00 33.2 13 Sudoeste 28 Sudoeste 0 -- -- 20
2019-07-20 16:00:00 33.4 12 Sudoeste 27 Sudoeste 0 -- -- 19
2019-07-20 15:00:00 33.1 11 Sudoeste 30 Sudoeste 0 -- -- 21
2019-07-20 14:00:00 32 17 Sur 31 Sudoeste 0 -- -- 24
2019-07-20 13:00:00 30.3 13 Sur 31 Sudoeste 0 -- -- 27
2019-07-20 12:00:00 28.4 12 Sudoeste 28 Sudoeste 0 -- -- 30
2019-07-20 11:00:00 26.6 15 Sur 29 Sudoeste 0 -- -- 35
2019-07-20 10:00:00 24.5 17 Sur 30 Sur 0 -- -- 40
2019-07-20 09:00:00 17.3 0 Calma 7 Nordeste 0 -- -- 73
2019-07-20 08:00:00 13.8 2 Nordeste 7 Norte 0 -- -- 80
2019-07-20 07:00:00 13 2 Nordeste 6 Nordeste 0 -- -- 82
2019-07-20 06:00:00 13.7 2 Nordeste 6 Nordeste 0 -- -- 79
2019-07-20 05:00:00 14.8 2 Norte 5 Norte 0 -- -- 73
2019-07-20 04:00:00 16.1 0 Calma 7 Norte 0 -- -- 69
2019-07-20 03:00:00 17.8 4 Norte 10 Norte 0 -- -- 61
2019-07-20 02:00:00 18.5 2 Nordeste 5 Noroeste 0 -- -- 58
2019-07-20 01:00:00 18.7 2 Este 9 Norte 0 -- -- 58
2019-07-20 00:00:00 20.3 3 Nordeste 8 Norte 0 -- -- 52
2019-07-19 23:00:00 22.3 6 Norte 14 Norte 0 -- -- 44
2019-07-19 22:00:00 25.4 0 Calma 10 Sudoeste 0 -- -- 35
2019-07-19 21:00:00 29.9 6 Sur 20 Sudoeste 0 -- -- 22
2019-07-19 20:00:00 31.3 8 Sudoeste 30 Sudoeste 0 -- -- 20
2019-07-19 19:00:00 32.2 14 Sudoeste 31 Sur 0 -- -- 19
2019-07-19 18:00:00 32.4 10 Sudoeste 31 Sur 0 -- -- 20
2019-07-19 17:00:00 32.4 13 Sudoeste 34 Sudoeste 0 -- -- 22
2019-07-19 16:00:00 31.8 12 Sur 31 Sudoeste 0 -- -- 23
2019-07-19 15:00:00 32.2 15 Sudoeste 34 Sudoeste 0 -- -- 20
2019-07-19 14:00:00 31.4 11 Sur 27 Sudoeste 0 -- -- 27
2019-07-19 13:00:00 30.5 6 Sudoeste 19 Sudoeste 0 912.1 -- 29
2019-07-19 12:00:00 28.3 8 Sur 20 Sur 0 -- -- 34
2019-07-19 11:00:00 26.2 8 Sudoeste 21 Sudoeste 0 910.3 -- 41
2019-07-19 10:00:00 22.1 5 Norte 9 Nordeste 0 -- -- 54
2019-07-19 09:00:00 18.6 6 Nordeste 11 Nordeste 0 -- -- 62
2019-07-19 08:00:00 14.2 7 Nordeste 10 Nordeste 0 -- -- 80
2019-07-19 07:00:00 13.5 7 Nordeste 10 Nordeste 0 -- -- 80
2019-07-19 06:00:00 14.6 7 Nordeste 10 Nordeste 0 -- -- 75
2019-07-19 05:00:00 15.7 4 Nordeste 14 Nordeste 0 -- -- 70
2019-07-19 04:00:00 16.6 5 Nordeste 14 Nordeste 0 891.5 2.9 67
2019-07-19 03:00:00 17.8 6 Nordeste 13 Nordeste 0 -- -- 62
2019-07-19 02:00:00 17.9 5 Este 13 Este 0 889.3 1.2 63
2019-07-19 01:00:00 18.9 5 Este 12 Nordeste 0 888.6 -2 60
2019-07-19 00:00:00 20.2 6 Nordeste 15 Norte 0 888.1 -7.8 55